Probability
0 0 0 0 0 0 0 0 0 0 0 0 0 0 0 0 0 0 0 1 4 14 24 29 30 30 28 25 22 19 17 15 11 6 2 0 0 0 0 0 0 0 0 0 0 0 0 0 0
0 0 0 0 0 0 0 0 0 0 0 0 0 0 0 0 0 0 1 2 7 15 24 29 31 31 29 26 22 20 18 18 15 10 5 2 1 1 1 0 0 0 0 0 0 0 0 0 0
0 0 0 0 0 0 0 0 0 0 0 0 0 0 1 2 2 2 3 5 11 18 27 33 36 34 31 27 23 20 20 20 20 16 9 4 3 3 2 1 1 1 0 0 0 0 0 0 0
0 0 0 0 0 0 0 0 0 0 0 0 0 1 2 3 4 5 5 8 14 22 31 38 40 38 33 28 24 20 20 21 20 17 12 7 4 3 2 2 2 2 1 0 0 0 0 0 0
1 1 0 0 0 0 0 0 0 0 0 0 0 1 2 3 5 8 9 11 15 23 33 39 41 38 33 27 22 19 19 19 18 17 14 9 5 2 1 1 2 2 2 1 0 0 0 0 0
1 2 1 0 0 0 0 0 0 0 0 0 0 1 2 3 7 13 15 14 16 25 32 36 36 33 30 25 19 16 16 16 16 17 16 12 7 4 2 1 1 2 2 2 1 0 0 0 0
1 1 0 0 0 0 0 0 0 0 0 0 0 1 2 5 9 17 20 18 19 24 29 30 27 25 23 21 18 16 15 15 16 17 16 12 8 5 4 3 2 2 3 2 1 0 0 0 0
0 0 0 0 0 0 0 0 0 0 0 0 0 0 2 5 10 18 22 22 21 23 25 26 24 21 19 18 17 16 16 16 15 15 13 9 7 5 4 3 3 3 3 2 1 0 0 0 0
0 0 0 0 0 0 0 0 0 0 0 0 0 0 2 5 11 19 24 23 21 21 23 25 25 24 21 18 17 17 17 16 14 12 9 7 5 4 3 3 3 3 3 2 1 0 0 0 0
0 0 0 0 0 0 0 0 0 0 0 0 0 1 3 7 12 18 20 19 17 19 21 22 23 24 23 19 18 19 18 15 12 8 6 6 5 4 3 3 3 3 3 2 1 0 0 0 0
0 0 0 0 0 0 0 0 0 0 0 0 0 1 4 8 11 13 14 14 15 17 18 17 18 21 22 21 20 21 20 16 11 7 6 6 7 6 5 4 4 4 4 3 1 0 0 0 0
0 0 0 0 0 0 0 0 0 0 0 0 1 2 4 6 7 8 10 13 16 16 16 15 14 17 20 21 21 21 21 19 14 10 8 8 9 9 7 6 6 6 5 3 2 1 1 0 0
0 0 0 0 0 0 0 0 0 0 0 0 1 2 3 2 2 4 7 12 15 16 17 17 15 14 17 20 20 20 20 19 16 14 11 9 10 10 9 8 7 7 6 3 1 0 0 0 0
0 0 0 0 0 0 0 0 0 0 0 1 2 3 2 0 0 1 5 9 13 15 18 19 17 14 15 17 19 19 18 16 16 15 12 9 9 9 9 9 8 7 5 3 1 0 0 0 0
0 0 0 0 0 0 0 0 0 0 0 1 2 3 2 1 0 0 2 5 8 11 14 16 15 14 14 15 17 17 15 15 15 15 12 9 8 9 10 9 8 6 4 3 2 1 0 0 0
0 0 0 0 0 0 0 0 0 0 0 1 2 3 2 1 0 0 0 2 4 6 9 12 12 12 12 13 15 16 15 15 15 14 13 10 8 9 9 9 7 5 4 3 2 1 0 0 0
0 0 0 0 0 0 0 0 0 0 0 1 2 2 1 0 0 0 0 1 3 4 6 8 10 11 11 11 14 15 14 14 13 13 12 10 8 8 8 8 7 6 4 2 1 0 0 0 0
0 0 0 0 0 0 0 0 0 0 0 0 1 1 0 0 0 0 0 1 3 4 6 7 7 8 8 9 11 12 12 11 12 12 11 8 7 7 8 7 5 4 3 1 0 0 0 0 0
0 0 0 0 0 0 0 0 0 0 0 0 0 0 0 0 0 0 1 2 3 4 5 5 4 3 5 6 7 8 9 9 10 10 9 6 5 6 7 6 4 2 1 1 1 0 0 0 0
0 0 0 0 0 0 0 0 0 0 0 0 0 0 0 0 0 0 1 3 3 3 4 3 1 1 3 4 4 5 7 8 8 8 7 5 4 4 6 6 4 2 1 1 2 1 1 0 0
0 0 0 0 0 0 0 0 0 0 0 0 0 0 0 0 0 1 2 3 3 3 3 2 1 1 2 3 2 2 5 7 7 7 7 5 2 2 5 6 5 3 1 1 2 2 2 1 1
0 0 0 0 0 0 0 0 0 0 0 0 0 0 0 0 0 1 2 3 3 3 3 2 1 0 1 2 1 1 2 5 6 7 8 6 3 1 3 4 4 3 1 0 1 2 2 2 2
0 0 0 0 0 0 0 0 0 0 0 0 0 0 0 0 0 1 2 3 3 3 3 2 1 0 0 0 0 1 2 3 5 8 9 7 4 1 1 1 2 2 1 0 0 1 1 2 3
0 0 0 0 0 0 0 0 0 0 0 0 0 0 0 0 0 1 2 3 3 3 3 2 1 0 0 0 0 1 1 1 3 6 8 6 5 2 1 0 1 1 0 0 0 0 0 1 2
0 0 0 0 0 0 0 0 0 0 0 0 0 0 0 0 0 0 2 3 3 3 3 2 1 0 0 0 0 0 0 0 1 4 4 4 4 3 1 0 0 0 0 0 0 0 0 0 1
0 0 0 0 0 0 0 0 0 0 0 0 0 0 0 0 0 0 1 2 2 2 2 1 0 0 0 0 0 0 0 0 1 2 2 2 2 2 1 0 0 0 0 0 0 0 0 0 0
0 0 0 0 0 0 0 0 0 0 0 0 0 0 0 0 0 0 1 1 0 1 1 0 0 0 0 0 0 0 0 1 1 2 1 0 1 1 0 0 0 0 0 0 0 0 0 0 0
0 0 0 0 0 0 0 0 0 0 0 0 0 0 0 0 0 0 0 0 0 0 0 0 0 0 0 0 0 0 1 2 2 2 1 0 0 0 0 1 0 0 0 0 0 0 0 0 0
0 0 0 0 0 0 0 0 0 0 0 0 0 0 0 0 0 0 0 0 0 0 0 0 0 0 0 0 0 0 1 2 2 1 0 0 0 0 0 0 0 0 0 0 0 0 0 0 0
0 0 0 0 0 0 0 0 0 0 0 0 0 0 0 0 0 0 0 0 0 0 0 0 0 0 0 0 0 0 0 1 1 0 0 0 0 0 0 0 0 0 0 0 0 0 0 0 0
Wind_Speed
2 3 3 4 6 7 12 8 5 5 5 3 2 4 4 4 2 3 5 6 8 11 12 13 11 11 11 11 10 10 10 9 9 9 9 9 9 8 8 7 7 7 7 6 6 6 6 6 6
3 4 4 5 8 11 10 9 9 6 3 4 4 4 4 3 2 4 5 7 9 11 11 11 12 11 11 11 10 10 10 9 9 9 9 8 8 8 8 8 7 7 6 6 6 6 6 6 6
4 4 5 6 9 12 7 6 7 4 4 4 4 2 2 2 3 3 5 8 10 11 11 12 12 11 11 11 10 10 10 9 9 9 9 8 8 8 7 7 7 6 6 6 6 6 6 6 5
4 5 5 8 14 10 5 3 4 6 5 4 4 4 3 3 2 4 7 9 10 11 11 12 11 11 11 11 10 10 9 9 9 9 8 8 8 7 7 7 7 6 6 6 5 5 5 5 5
4 5 8 10 13 8 5 3 4 6 5 5 5 4 4 3 3 6 8 9 10 10 10 12 11 11 11 10 10 9 9 9 8 8 8 8 8 7 7 7 6 6 6 5 5 5 5 5 5
6 6 9 13 13 8 7 6 5 6 5 4 5 4 4 5 4 6 8 8 9 9 9 11 11 11 10 10 10 9 9 8 8 8 8 8 8 7 7 7 6 6 6 5 5 5 5 5 5
6 7 10 11 10 9 6 6 7 6 6 5 3 4 5 5 4 6 8 8 8 8 8 9 10 10 10 9 9 9 8 8 8 8 8 8 8 7 7 6 6 5 5 5 5 5 5 4 4
5 6 9 10 11 9 5 5 4 5 4 2 3 4 5 5 5 7 8 8 7 7 7 8 8 8 8 9 9 8 8 8 8 8 7 7 7 6 6 6 6 5 5 4 4 4 4 4 3
5 8 11 11 9 6 6 6 3 1 3 3 1 2 4 8 8 8 8 7 7 6 6 6 7 7 7 7 8 8 8 7 7 7 7 5 4 4 4 5 5 5 4 4 4 4 3 2 2
7 10 12 7 6 4 6 5 4 5 5 4 3 3 7 8 9 9 9 8 8 7 6 5 6 6 6 5 6 5 5 5 4 4 5 3 3 3 3 5 4 4 3 3 4 3 1 1 0
8 10 8 6 5 4 4 4 4 6 6 6 6 8 8 8 8 8 8 8 7 6 5 5 5 5 5 4 4 3 3 3 4 4 4 3 2 2 2 2 3 2 2 1 2 1 0 1 1
8 8 7 5 4 5 5 4 4 7 4 1 3 7 9 9 8 8 7 7 6 6 5 4 5 4 5 4 3 3 3 3 3 3 3 2 2 2 1 1 1 1 0 0 0 1 1 1 1
9 6 6 5 4 4 3 4 5 6 3 2 4 7 8 8 7 6 6 6 6 5 5 4 4 5 4 4 3 3 3 3 3 3 3 2 2 2 1 1 1 0 0 0 1 1 1 1 1
6 5 5 5 5 5 5 5 5 4 2 3 6 7 8 7 6 5 5 5 6 5 5 4 4 4 5 4 3 3 3 3 3 3 3 2 2 1 1 1 1 1 0 1 1 1 1 1 1
5 5 5 6 6 5 5 6 6 3 4 5 6 6 6 6 5 5 5 4 5 5 5 5 5 4 5 5 4 3 3 3 3 3 3 2 2 2 1 1 1 1 1 1 1 1 1 1 1
6 7 7 5 5 5 8 9 4 3 5 6 5 5 5 5 5 4 3 3 3 4 4 5 4 4 4 4 4 3 3 3 2 2 2 3 3 2 2 1 1 1 1 0 0 1 1 1 1
8 9 9 5 5 4 8 7 3 2 5 5 5 5 5 4 4 3 3 3 3 3 4 4 4 4 4 4 3 3 3 3 2 2 2 2 3 2 2 1 1 1 1 1 0 1 1 1 2
9 9 9 8 4 6 8 7 4 3 4 5 5 4 4 4 4 3 3 2 2 2 3 4 4 4 4 3 3 2 2 2 2 2 2 3 2 2 2 1 1 1 1 1 1 1 1 1 2
8 9 8 6 3 6 8 7 6 4 4 5 5 5 5 4 3 2 2 2 2 2 3 3 3 4 4 3 3 3 3 2 2 2 2 3 2 2 2 1 1 1 1 1 1 1 0 1 1
8 9 7 3 2 5 6 7 6 5 6 5 5 5 5 4 3 2 2 2 2 2 3 3 3 4 4 3 3 2 2 2 2 2 2 2 3 3 2 2 2 2 1 1 1 1 0 1 1
8 9 7 4 2 4 5 7 7 6 5 3 4 4 4 4 4 4 3 2 2 2 2 2 3 3 4 4 2 2 2 1 2 2 2 2 3 3 2 3 2 2 2 2 2 2 2 1 1
6 6 5 5 5 4 6 6 6 6 6 4 4 4 4 4 4 3 3 3 2 2 1 2 2 3 3 4 4 4 3 3 3 2 3 3 3 2 2 3 3 2 2 2 3 3 3 3 2
3 3 5 6 5 4 6 6 4 4 6 6 5 4 4 3 3 3 3 3 2 1 1 1 2 2 2 3 4 4 3 3 2 2 3 3 2 2 2 2 2 2 2 3 3 3 3 3 3
4 3 3 3 4 6 8 8 4 3 5 4 4 4 3 3 3 3 2 2 2 1 1 1 1 1 2 3 3 4 4 3 3 3 3 2 2 2 2 2 2 2 2 3 3 3 4 3 4
5 5 3 5 6 5 5 6 4 1 1 3 2 3 3 3 3 3 3 2 2 2 1 1 1 1 1 2 3 3 4 4 4 3 3 2 2 2 2 2 3 2 2 2 2 3 3 4 4
7 6 4 4 5 3 5 7 2 2 1 2 1 1 1 2 3 3 2 2 2 1 1 1 0 1 1 2 2 2 3 3 2 3 2 2 2 2 2 3 3 3 2 2 2 2 3 3 3
5 5 1 0 1 3 5 3 1 0 1 2 2 2 2 1 1 1 1 2 1 1 1 0 0 0 0 1 2 2 2 2 2 2 2 2 1 1 2 3 3 3 2 2 2 2 3 3 3
2 4 3 4 4 4 4 4 2 1 1 2 2 2 2 2 1 1 1 1 1 1 1 1 0 0 0 1 1 1 2 2 2 2 2 1 1 1 2 2 3 3 2 2 3 2 3 3 3
3 3 2 2 2 3 3 1 2 1 1 1 2 2 2 2 1 1 1 1 1 2 2 1 1 1 0 0 1 1 1 1 2 2 2 1 1 1 2 2 2 3 3 3 3 2 3 3 3
2 3 4 3 2 3 2 1 3 1 2 2 2 2 2 2 2 2 2 2 2 2 2 1 1 1 1 1 1 1 0 1 1 2 1 1 2 2 2 2 2 2 3 3 3 3 3 3 3
Wind_Direction
217 207 206 206 211 223 229 213 207 179 185 186 183 204 211 206 216 83 87 145 142 145 143 141 136 133 130 126 122 120 117 115 114 112 110 108 104 100 96 93 89 85 82 80 79 77 76 72 70
197 190 202 213 226 219 218 211 205 195 148 146 176 205 203 198 39 79 122 141 147 144 143 141 134 132 129 128 125 122 119 117 114 111 109 108 106 102 98 95 90 86 81 76 72 72 74 73 69
180 213 211 210 225 228 213 190 196 164 161 184 172 194 218 128 116 113 120 146 147 143 142 133 133 132 129 128 126 123 120 117 115 112 110 108 105 102 99 95 91 85 80 75 70 70 72 70 67
189 189 212 228 223 227 242 153 159 171 173 190 184 157 136 59 62 104 132 149 144 140 138 129 129 128 127 127 125 122 119 117 116 115 113 109 104 100 98 91 86 82 80 76 72 72 72 68 66
217 202 207 221 228 224 227 216 188 194 181 177 194 171 132 94 93 125 140 145 142 138 133 131 126 125 124 123 123 121 119 117 116 115 113 110 105 99 94 91 87 82 77 75 72 72 70 67 64
197 211 216 219 219 218 214 209 208 213 189 178 189 173 128 105 124 131 140 144 141 138 134 134 128 125 124 124 123 121 119 118 116 112 109 106 102 99 96 92 88 84 80 75 73 72 69 65 60
213 211 225 223 219 215 209 201 210 207 199 185 189 170 141 127 119 137 142 141 139 138 138 139 143 137 129 124 123 122 120 118 114 110 105 101 98 97 96 90 85 83 77 73 73 70 66 60 53
234 222 222 220 218 215 188 186 207 213 195 135 197 188 158 140 141 143 140 139 138 141 144 144 147 146 147 140 125 123 121 117 115 110 103 102 106 104 100 96 84 79 75 72 73 70 65 57 50
219 225 221 213 213 204 178 189 181 217 163 158 163 21 94 126 145 148 146 147 147 148 148 147 149 149 149 146 137 135 128 118 123 118 110 122 128 121 118 93 84 81 76 73 71 63 58 55 80
209 225 224 222 222 203 184 197 178 185 193 194 172 122 122 141 155 162 164 164 162 161 157 153 152 153 152 150 151 153 146 139 139 136 136 138 128 117 113 108 98 90 81 87 75 64 77 269 191
211 229 226 225 224 218 205 202 202 207 214 214 192 159 153 161 167 174 176 173 169 162 160 159 156 157 157 155 154 149 146 146 145 142 140 142 135 137 138 135 133 129 123 104 108 165 35 331 341
218 228 227 223 222 226 224 213 220 236 255 278 183 160 165 175 179 182 181 176 169 169 163 161 160 160 160 158 156 153 152 154 150 151 153 155 150 159 151 160 139 156 154 64 287 304 356 326 312
221 226 226 229 223 227 228 232 243 246 260 238 168 168 176 180 181 182 181 178 175 176 174 167 167 165 162 162 163 164 163 163 155 155 161 169 169 172 174 174 171 203 279 277 307 310 335 312 318
212 216 220 231 231 230 224 245 243 238 217 178 171 177 182 182 181 176 176 180 185 184 180 173 170 169 167 169 171 170 172 169 169 162 164 177 181 180 185 185 188 209 259 290 290 315 318 315 316
202 208 221 228 224 216 212 235 233 223 199 191 190 189 191 191 188 188 184 185 188 188 182 180 178 173 175 176 177 174 176 177 172 163 168 177 186 191 194 197 202 221 245 264 297 319 311 316 307
208 209 215 205 205 210 221 231 205 190 201 205 201 197 196 196 198 193 192 196 192 187 185 180 177 179 176 175 179 173 178 179 175 167 173 181 187 198 201 203 209 237 231 224 254 303 309 307 305
202 212 214 203 211 206 218 234 194 189 203 205 200 196 196 195 201 199 201 200 192 189 187 181 179 181 176 171 174 169 170 179 174 169 173 187 193 203 208 213 215 217 227 222 237 296 302 309 318
203 209 213 210 199 211 217 229 210 202 214 213 206 204 202 204 206 201 202 200 189 184 183 183 178 179 170 165 163 161 168 178 178 178 180 184 193 204 210 211 210 211 219 227 244 280 304 310 319
215 212 220 228 215 217 220 230 225 217 212 216 214 211 211 215 206 188 191 186 180 169 176 178 182 177 171 170 177 182 187 186 185 190 190 191 194 202 205 205 201 217 225 238 231 258 288 342 336
213 212 222 223 205 222 222 237 235 220 220 224 224 221 215 208 196 183 180 176 182 176 179 186 183 182 183 188 189 200 188 196 190 185 198 205 202 201 206 211 209 217 228 226 220 216 251 304 298
214 214 208 200 220 222 222 233 218 215 219 230 239 235 226 215 208 190 186 184 186 186 189 189 185 185 187 181 175 159 153 164 177 190 199 209 207 204 211 214 212 215 223 225 224 218 233 237 265
215 211 204 199 206 204 216 233 209 206 209 222 231 233 231 218 210 189 186 186 190 194 194 191 181 182 180 180 186 187 194 201 206 207 199 200 202 202 206 216 217 220 225 228 229 227 240 230 239
203 195 198 201 212 220 213 234 218 188 225 226 226 226 229 216 203 189 185 183 175 155 169 187 177 179 180 190 193 203 213 215 203 200 200 197 193 199 199 214 216 221 230 232 235 235 236 235 243
148 143 155 182 205 223 212 222 229 196 225 220 215 216 215 205 193 182 163 151 131 104 102 125 167 175 185 195 202 213 219 213 194 200 204 203 198 201 192 216 226 229 232 231 235 240 243 245 251
168 154 165 184 202 216 176 217 234 104 273 243 225 213 202 185 177 167 153 150 129 105 92 104 157 177 196 201 209 220 226 218 211 209 211 210 208 209 207 218 230 230 235 235 234 239 248 252 253
193 192 197 206 204 177 183 219 183 67 353 339 290 185 164 170 172 170 163 156 141 124 101 99 160 189 198 207 221 227 229 224 222 219 217 218 220 228 221 221 229 231 232 234 232 233 240 247 251
186 201 242 223 201 212 200 210 220 89 359 20 42 64 74 91 129 143 143 141 130 129 122 139 190 209 215 222 228 233 232 231 227 219 218 219 235 244 229 229 223 223 225 234 234 236 242 249 251
233 175 188 202 203 216 205 223 227 183 324 29 40 49 51 55 68 85 93 87 98 104 99 109 134 217 277 252 232 243 242 235 228 214 206 211 213 226 227 228 224 219 223 231 231 232 241 247 254
155 170 191 194 257 240 216 167 49 338 9 14 27 35 43 52 69 75 69 67 65 78 81 66 45 30 20 303 260 242 242 238 220 210 206 208 210 217 222 225 232 225 223 229 232 235 236 243 255
222 197 193 202 204 238 245 91 58 32 31 21 16 29 41 46 52 68 65 61 57 56 60 58 22 0 345 323 293 280 252 220 214 205 204 211 210 216 224 225 234 240 232 227 230 233 233 239 249